Weather History for KBPC - December, 2012

Change the Weather History Date:

Friday, December 21, 2012

  Actual Average (KBGD) Record (KBGD)
Temperature  
Mean Temperature 45 °F 37 °F  
Max Temperature 66 °F 49 °F 74 °F (2003)
Min Temperature 24 °F 26 °F -2 °F (1990)
Degree Days  
Heating Degree Days 20 28  
Month to date heating degree days 542  
Since 1 July heating degree days 1259  
Cooling Degree Days 0 0  
Month to date cooling degree days 0  
Year to date cooling degree days 1839  
Moisture  
Dew Point 5 °F    
Average Humidity 25    
Maximum Humidity 47    
Minimum Humidity 8    
Precipitation  
Precipitation 0.00 in 0.03 in 0.51 in (1997)
Month to date precipitation 0.42  
Year to date precipitation 21.37  
Snow  
Snow 0.00 in - - ()
Month to date snowfall  
Since 1 July snowfall  
Snow Depth -    
Sea Level Pressure  
Sea Level Pressure 30.22 in    
Wind  
Wind Speed 10 mph (SW)    
Max Wind Speed 17 mph    
Max Gust Speed 21 mph    
Visibility 10 miles    
Events      
T = Trace of Precipitation, MM = Missing Value Source: NWS Daily Summary

Daily Weather History Graph

Daily Weather History Graph

Search for Another Location

Airport or City:

Trip Planner

Search our weather history database for the weather conditions in past years. The results will help you decide how hot, cold, wet, or windy it might be!

Date:

Astronomy

Dec. 21, 2012 Rise Set
Actual Time 7:50 AM CST 5:34 PM CST
Civil Twilight 7:22 AM CST 6:02 PM CST
Nautical Twilight 6:50 AM CST 6:34 PM CST
Astronomical Twilight 6:18 AM CST 7:06 PM CST
Moon 1:15 PM CST (12/21) 1:47 AM CST (12/21)
Length of Visible Light 10h 40m
Length of Day
9h 43m
Waxing Gibbous, 65% of the Moon is Illuminated
Dec 21
Waxing Gibbous
Dec 28
Full
Jan 4
Last Quarter
Jan 11
New
Jan 18
First Quarter

Hourly Weather History & Observations

Time (CST) Temp. Windchill Dew Point Humidity Pressure Visibility Wind Dir Wind Speed Gust Speed Precip Events Conditions
12:15 AM 24.8 °F 14.6 °F 6.8 °F 46% 30.32 in 10.0 mi SW 10.4 mph - N/A   Clear
12:35 AM 26.6 °F 19.1 °F 6.8 °F 43% 30.32 in 10.0 mi WSW 6.9 mph - N/A   Clear
12:55 AM 26.6 °F 20.0 °F 6.8 °F 43% 30.31 in 10.0 mi WSW 5.8 mph - N/A   Clear
1:15 AM 24.8 °F 16.9 °F 6.8 °F 46% 30.30 in 10.0 mi SW 6.9 mph - N/A   Clear
1:35 AM 28.4 °F 19.7 °F 6.8 °F 40% 30.30 in 10.0 mi SW 9.2 mph - N/A   Clear
1:55 AM 28.4 °F 19.7 °F 6.8 °F 40% 30.29 in 10.0 mi WSW 9.2 mph - N/A   Clear
2:15 AM 28.4 °F 19.1 °F 5.0 °F 37% 30.29 in 10.0 mi WSW 10.4 mph - N/A   Clear
2:35 AM 26.6 °F 18.2 °F 6.8 °F 43% 30.29 in 10.0 mi WSW 8.1 mph - N/A   Clear
2:55 AM 26.6 °F 18.2 °F 6.8 °F 43% 30.29 in 10.0 mi WSW 8.1 mph - N/A   Clear
3:15 AM 26.6 °F 16.8 °F 6.8 °F 43% 30.28 in 10.0 mi WSW 10.4 mph - N/A   Clear
3:35 AM 26.6 °F 16.8 °F 8.6 °F 47% 30.27 in 10.0 mi SW 10.4 mph - N/A   Clear
3:55 AM 30.2 °F 21.3 °F 6.8 °F 37% 30.26 in 10.0 mi SW 10.4 mph - N/A   Clear
4:15 AM 32.0 °F 24.2 °F 5.0 °F 32% 30.26 in 10.0 mi WSW 9.2 mph - N/A   Clear
4:35 AM 32.0 °F 25.6 °F 5.0 °F 32% 30.26 in 10.0 mi WSW 6.9 mph - N/A   Clear
4:55 AM 30.2 °F 24.3 °F 5.0 °F 34% 30.26 in 10.0 mi WSW 5.8 mph - N/A   Clear
5:15 AM 26.6 °F 17.5 °F 5.0 °F 40% 30.26 in 10.0 mi West 9.2 mph - N/A   Clear
5:35 AM 26.6 °F 16.8 °F 6.8 °F 43% 30.26 in 10.0 mi WSW 10.4 mph - N/A   Clear
5:55 AM 30.2 °F 21.9 °F 6.8 °F 37% 30.26 in 10.0 mi WSW 9.2 mph - N/A   Clear
6:15 AM 30.2 °F 21.9 °F 6.8 °F 37% 30.26 in 10.0 mi SW 9.2 mph - N/A   Clear
6:35 AM 30.2 °F 21.9 °F 5.0 °F 34% 30.26 in 10.0 mi WSW 9.2 mph - N/A   Clear
6:55 AM 32.0 °F 23.6 °F 6.8 °F 35% 30.27 in 10.0 mi WSW 10.4 mph - N/A   Clear
7:15 AM 32.0 °F 25.6 °F 5.0 °F 32% 30.29 in 10.0 mi West 6.9 mph - N/A   Clear
7:35 AM 30.2 °F 24.3 °F 5.0 °F 34% 30.30 in 10.0 mi WSW 5.8 mph - N/A   Clear
7:55 AM 28.4 °F 21.2 °F 6.8 °F 40% 30.30 in 10.0 mi WSW 6.9 mph - N/A   Clear
8:15 AM 28.4 °F 23.3 °F 5.0 °F 37% 30.30 in 10.0 mi WSW 4.6 mph - N/A   Clear
8:35 AM 32.0 °F 24.2 °F 6.8 °F 35% 30.30 in 10.0 mi WSW 9.2 mph - N/A   Clear
8:55 AM 32.0 °F 24.2 °F 6.8 °F 35% 30.30 in 10.0 mi WSW 9.2 mph - N/A   Clear
9:15 AM 33.8 °F 27.0 °F 6.8 °F 32% 30.30 in 10.0 mi WSW 8.1 mph - N/A   Clear
9:35 AM 35.6 °F 27.5 °F 6.8 °F 30% 30.30 in 10.0 mi WSW 11.5 mph - N/A   Clear
9:55 AM 37.4 °F 29.8 °F 8.6 °F 30% 30.30 in 10.0 mi WSW 11.5 mph - N/A   Clear
10:15 AM 41.0 °F 33.9 °F 8.6 °F 26% 30.30 in 10.0 mi WSW 12.7 mph - N/A   Clear
10:35 AM 41.0 °F 34.7 °F 8.6 °F 26% 30.30 in 10.0 mi WSW 10.4 mph - N/A   Clear
10:55 AM 42.8 °F 36.6 °F 8.6 °F 25% 30.30 in 10.0 mi WSW 11.5 mph - N/A   Clear
11:15 AM 44.6 °F 38.1 °F 8.6 °F 23% 30.29 in 10.0 mi WSW 13.8 mph - N/A   Clear
11:35 AM 46.4 °F 40.7 °F 8.6 °F 22% 30.27 in 10.0 mi WSW 12.7 mph - N/A   Clear
11:55 AM 48.2 °F - 6.8 °F 19% 30.26 in 10.0 mi SW 16.1 mph - N/A   Clear
12:15 PM 50.0 °F - 6.8 °F 17% 30.25 in 10.0 mi SW 11.5 mph - N/A   Clear
12:35 PM 51.8 °F - 6.8 °F 16% 30.24 in 10.0 mi SW 10.4 mph - N/A   Clear
12:55 PM 51.8 °F - 6.8 °F 16% 30.23 in 10.0 mi WSW 13.8 mph 17.3 mph N/A   Clear
1:15 PM 53.6 °F - 8.6 °F 16% 30.21 in 10.0 mi WSW 16.1 mph - N/A   Clear
1:35 PM 55.4 °F - 6.8 °F 14% 30.20 in 10.0 mi WSW 16.1 mph - N/A   Clear
1:55 PM 59.0 °F - 6.8 °F 13% 30.19 in 10.0 mi WSW 15.0 mph 19.6 mph N/A   Clear
2:15 PM 59.0 °F - 6.8 °F 13% 30.18 in 10.0 mi WSW 12.7 mph - N/A   Clear
2:35 PM 60.8 °F - 6.8 °F 12% 30.17 in 10.0 mi West 8.1 mph - N/A   Clear
2:55 PM 62.6 °F - 5.0 °F 10% 30.16 in 10.0 mi SW 9.2 mph - N/A   Clear
3:15 PM 64.4 °F - 5.0 °F 10% 30.15 in 10.0 mi WSW 11.5 mph - N/A   Clear
3:35 PM 64.4 °F - 5.0 °F 10% 30.15 in 10.0 mi WSW 9.2 mph - N/A   Clear
4:15 PM 66.2 °F - 1.4 °F 8% 30.14 in 10.0 mi SW 15.0 mph 19.6 mph N/A   Clear
4:35 PM 64.4 °F - 1.4 °F 8% 30.14 in 10.0 mi SW 17.3 mph - N/A   Clear
4:55 PM 64.4 °F - 1.4 °F 8% 30.13 in 10.0 mi SW 16.1 mph 20.7 mph N/A   Clear
5:15 PM 60.8 °F - 1.4 °F 9% 30.13 in 10.0 mi SW 11.5 mph - N/A   Clear
5:35 PM 55.4 °F - 1.4 °F 11% 30.13 in 10.0 mi SSW 10.4 mph - N/A   Clear
5:55 PM 50.0 °F - 1.4 °F 14% 30.13 in 10.0 mi SSW 10.4 mph - N/A   Clear
6:15 PM 50.0 °F - 1.4 °F 14% 30.13 in 10.0 mi SSW 9.2 mph - N/A   Clear
6:55 PM 51.8 °F - -0.4 °F 12% 30.13 in 10.0 mi South 12.7 mph - N/A   Clear
7:15 PM 50.0 °F - 1.4 °F 14% 30.13 in 10.0 mi South 11.5 mph - N/A   Clear
7:35 PM 46.4 °F 42.9 °F 1.4 °F 16% 30.13 in 10.0 mi South 6.9 mph - N/A   Clear
7:55 PM 46.4 °F 41.1 °F 1.4 °F 16% 30.13 in 10.0 mi SSW 11.5 mph - N/A   Clear
8:15 PM 46.4 °F 40.4 °F 1.4 °F 16% 30.14 in 10.0 mi SSW 13.8 mph - N/A   Clear
8:35 PM 46.4 °F 40.7 °F 1.4 °F 16% 30.14 in 10.0 mi SSW 12.7 mph - N/A   Clear
8:55 PM 44.6 °F 40.2 °F 1.4 °F 17% 30.15 in 10.0 mi SW 8.1 mph - N/A   Clear
9:15 PM 42.8 °F 39.3 °F 1.4 °F 18% 30.15 in 10.0 mi SW 5.8 mph - N/A   Clear
9:35 PM 44.6 °F 40.2 °F 1.4 °F 17% 30.15 in 10.0 mi SW 8.1 mph - N/A   Clear
9:55 PM 41.0 °F 35.2 °F 1.4 °F 19% 30.15 in 10.0 mi SSW 9.2 mph - N/A   Clear
10:15 PM 41.0 °F 38.0 °F 1.4 °F 19% 30.15 in 10.0 mi SW 4.6 mph - N/A   Clear
10:35 PM 42.8 °F 37.0 °F 1.4 °F 18% 30.15 in 10.0 mi SSW 10.4 mph - N/A   Clear
10:55 PM 42.8 °F 36.6 °F 1.4 °F 18% 30.14 in 10.0 mi SW 11.5 mph - N/A   Clear
11:15 PM 42.8 °F 35.8 °F 1.4 °F 18% 30.14 in 10.0 mi SW 13.8 mph - N/A   Clear
11:35 PM 41.0 °F 34.3 °F 3.2 °F 21% 30.14 in 10.0 mi SW 11.5 mph - N/A   Clear
11:55 PM 42.8 °F 35.8 °F 3.2 °F 19% 30.14 in 10.0 mi SW 13.8 mph 19.6 mph N/A   Clear